Pila Airport

Jump to: basic info | weather | runways | comments

Related pages: nearby airports | nearby navaids | notams | map

Basic information (top)

Codes: EPPI
Location: lon 53.169998, lat 16.712500, elev 259 ft / 79 m msl
Status: small_airport

Weather (top)

Current conditions for Poznań-Ławica Airport 45nm (84km) S (rec'd 2014/12/21 11:00Z):

EPPO 211100Z 27016G26KT 9999 BKN023 06/01 Q1019

Airport forecast for Poznań-Ławica Airport 45nm (84km) S (rec'd 2014/12/21 06:40Z):

TAF EPPO 210530Z 2106/2206 27015KT 9999 BKN025 
      TEMPO 2106/2118 27020G35KT BKN015 
      TEMPO 2118/2206 27025G40KT 3000 SHRA BKN010 BKN015CB

Runways (top)

03/21: 7,876 x 195 ft (2,401 x 59 m) — other (PEM) — lighted

Latest comments (top)

No comments yet for Pila Airport

More... (top)

See also NOTAMs and nearby airports and navaids, or visit the Pila Airport page at the main OurAirports website..